Weather History for Port Angeles, WA

Change the Weather History Date:

Friday, February 22, 2013

  Actual Average Record
Temperature  
Mean Temperature 42 °F -  
Max Temperature 48 °F 50 °F 71 °F (1966)
Min Temperature 37 °F 36 °F 26 °F (2005)
Degree Days  
Heating Degree Days 22    
Moisture  
Dew Point 37 °F    
Average Humidity 86    
Maximum Humidity 93    
Minimum Humidity 68    
Precipitation  
Precipitation 0.18 in - - ()
Sea Level Pressure  
Sea Level Pressure 29.82 in    
Wind  
Wind Speed 4 mph (WSW)    
Max Wind Speed 20 mph    
Max Gust Speed 31 mph    
Visibility 9 miles    
Events Rain    
Averages and records for this station are not official NWS values.
T = Trace of Precipitation, MM = Missing Value Source: NWS Daily Summary

Daily Weather History Graph

Daily Weather History Graph

Search for Another Location

Airport:

Trip Planner

Search our weather history database for the weather conditions in past years. The results will help you decide how hot, cold, wet, or windy it might be!

Date:

Astronomy

Feb. 22, 2013 Rise Set
Actual Time 7:07 AM PST 5:48 PM PST
Civil Twilight 6:36 AM PST 6:19 PM PST
Nautical Twilight 5:59 AM PST 6:55 PM PST
Astronomical Twilight 5:24 AM PST 7:31 PM PST
Moon 2:56 PM PST (2/22) 5:05 AM PST (2/22)
Length of Visible Light 11h 43m
Length of Day
10h 40m
Waxing Gibbous, 91% of the Moon is Illuminated
Feb 22
Waxing Gibbous
Feb 25
Full
Mar 4
Last Quarter
Mar 11
New
Mar 19
First Quarter

Hourly Weather History & Observations

Time (PST) Temp. Windchill Dew Point Humidity Pressure Visibility Wind Dir Wind Speed Gust Speed Precip Events Conditions
12:42 AM 41.0 °F - 37.9 °F 89% 30.00 in 10.0 mi Calm Calm - 0.00 in Rain Light Rain
12:49 AM 41.0 °F - 37.4 °F 87% 30.00 in 10.0 mi Calm Calm - 0.00 in Rain Light Rain
12:53 AM 41.0 °F - 37.9 °F 89% 30.01 in 10.0 mi Calm Calm - 0.00 in Rain Light Rain
1:13 AM 41.0 °F - 39.0 °F 93% 29.99 in 10.0 mi Calm Calm - 0.00 in   Overcast
1:21 AM 41.0 °F - 39.0 °F 93% 29.98 in 10.0 mi Calm Calm - 0.00 in   Overcast
1:51 AM 42.8 °F - 39.2 °F 87% 29.97 in 10.0 mi Calm Calm - 0.00 in Rain Light Rain
1:53 AM 41.0 °F - 39.0 °F 93% 29.98 in 10.0 mi Calm Calm - 0.00 in Rain Light Rain
2:04 AM 41.0 °F - 39.0 °F 93% 29.97 in 10.0 mi Calm Calm - 0.00 in Rain Light Rain
2:23 AM 39.9 °F - 37.9 °F 93% 29.96 in 10.0 mi Calm Calm - 0.00 in   Overcast
2:33 AM 41.0 °F - 39.0 °F 93% 29.95 in 10.0 mi Calm Calm - 0.00 in   Overcast
2:44 AM 41.0 °F 39.0 °F 39.0 °F 93% 29.95 in 10.0 mi SE 3.5 mph - 0.00 in   Overcast
2:53 AM 41.0 °F - 39.0 °F 93% 29.96 in 10.0 mi Calm Calm - 0.00 in   Overcast
3:18 AM 41.0 °F 36.4 °F 39.0 °F 93% 29.91 in 10.0 mi SE 6.9 mph - 0.00 in Rain Light Rain
3:36 AM 41.0 °F 38.0 °F 39.0 °F 93% 29.91 in 10.0 mi SSE 4.6 mph - 0.00 in   Overcast
3:53 AM 41.0 °F 39.0 °F 39.0 °F 93% 29.91 in 10.0 mi East 3.5 mph - 0.00 in   Overcast
4:27 AM 41.0 °F 37.1 °F 39.0 °F 93% 29.86 in 10.0 mi ESE 5.8 mph - N/A   Overcast
4:53 AM 41.0 °F 36.4 °F 37.9 °F 89% 29.83 in 10.0 mi ESE 6.9 mph - 0.00 in   Overcast
5:53 AM 41.0 °F - 39.0 °F 93% 29.78 in 10.0 mi Calm Calm - N/A   Overcast
6:45 AM 41.0 °F 38.0 °F 37.9 °F 89% 29.75 in 10.0 mi Variable 4.6 mph - 0.00 in Rain Light Rain
6:53 AM 41.0 °F 36.4 °F 37.9 °F 89% 29.77 in 10.0 mi WNW 6.9 mph - 0.00 in Rain Light Rain
7:37 AM 42.1 °F 36.1 °F 39.9 °F 92% 29.76 in 5.0 mi NNW 10.4 mph - 0.03 in Rain Light Rain
7:53 AM 42.1 °F 40.2 °F 39.9 °F 92% 29.74 in 6.0 mi Variable 3.5 mph - 0.06 in Rain Light Rain
8:39 AM 41.0 °F - 39.0 °F 93% 29.72 in 5.0 mi Calm Calm - 0.04 in Rain Light Rain
8:49 AM 41.0 °F 39.0 °F 37.4 °F 87% 29.71 in 5.0 mi East 3.5 mph - 0.05 in Rain Rain
8:53 AM 41.0 °F 39.0 °F 37.9 °F 89% 29.72 in 5.0 mi Variable 3.5 mph - 0.06 in Rain Rain
9:32 AM 41.0 °F 37.1 °F 39.0 °F 93% 29.69 in 10.0 mi SSE 5.8 mph - 0.01 in Rain Light Rain
9:53 AM 42.1 °F 36.1 °F 39.0 °F 89% 29.70 in 8.0 mi SSE 10.4 mph - 0.01 in Rain Light Rain
10:53 AM 44.1 °F 39.5 °F 39.0 °F 82% 29.65 in 10.0 mi South 8.1 mph - 0.00 in Rain Light Rain
11:53 AM 44.1 °F 40.8 °F 41.0 °F 89% 29.67 in 6.0 mi West 5.8 mph - 0.01 in Rain Rain
12:53 PM 48.0 °F - 42.1 °F 80% 29.63 in 10.0 mi WNW 9.2 mph - 0.00 in   Clear
1:53 PM 48.9 °F - 41.0 °F 74% 29.63 in 10.0 mi West 8.1 mph - 0.00 in Rain Light Rain
2:53 PM 46.0 °F 39.6 °F 36.0 °F 68% 29.68 in 10.0 mi West 15.0 mph 25.3 mph 0.00 in Rain Light Rain
3:53 PM 45.0 °F 38.5 °F 35.1 °F 68% 29.71 in 10.0 mi West 13.8 mph 19.6 mph 0.00 in   Mostly Cloudy
4:20 PM 43.0 °F 37.7 °F 35.1 °F 74% 29.71 in 9.0 mi West 9.2 mph 23.0 mph 0.01 in Rain Light Rain
4:39 PM 42.1 °F 37.7 °F 36.0 °F 79% 29.71 in 10.0 mi WSW 6.9 mph - 0.01 in   Overcast
4:53 PM 42.1 °F 38.4 °F 36.0 °F 79% 29.73 in 10.0 mi West 5.8 mph - 0.01 in   Mostly Cloudy
5:53 PM 39.9 °F 30.8 °F 33.1 °F 77% 29.76 in 9.0 mi West 18.4 mph 31.1 mph 0.01 in Rain Rain
6:26 PM 37.9 °F 30.0 °F 34.0 °F 86% 29.75 in 10.0 mi WSW 12.7 mph - 0.02 in Rain Light Rain
6:53 PM 37.9 °F 30.5 °F 34.0 °F 86% 29.76 in 10.0 mi West 11.5 mph - 0.02 in   Mostly Cloudy
7:53 PM 37.9 °F 29.2 °F 33.1 °F 83% 29.78 in 10.0 mi West 15.0 mph - 0.00 in   Mostly Cloudy
8:53 PM 37.9 °F 28.2 °F 33.1 °F 83% 29.79 in 10.0 mi WSW 18.4 mph 25.3 mph 0.00 in Rain Light Rain
9:53 PM 37.9 °F 27.9 °F 32.0 °F 79% 29.82 in 10.0 mi West 19.6 mph 26.5 mph 0.00 in   Partly Cloudy
10:53 PM 39.0 °F 31.4 °F 32.0 °F 76% 29.86 in 10.0 mi West 12.7 mph - N/A   Mostly Cloudy
11:53 PM 39.0 °F 31.4 °F 32.0 °F 76% 29.86 in 10.0 mi West 12.7 mph 21.9 mph N/A   Overcast